TITAN 3C TRANSTAGE DEB, 43448

Orbit data source: Space-Track

TITAN 3C TRANSTAGE DEB, 43448 is space debris originally from a launch on Sun, 09 Feb 1969 UTC launched from the Air Force Eastern Test Range (AFETR). Debris objects in space refer to the collection of defunct objects orbiting the Earth. Examples of debris include non-operational satellites, rocket bodies, and fragments generated from explosions, collisions, or faulty payload assembly.

Not visible in the next 10 days
TITAN 3C TRANSTAGE DEB details
Identifier
43448, 1969-013H
Orbit
Active
Last TLE update1 day ago
Origin
Flag of USUSAF SMC (US)
ManufacturerMartin Marietta
MissionSpacecraft
Bus & MotorUnknown
MassUnknown
Launch date (UTC)
1969-02-09 (56 years ago)
Launch vehicleUnknown
Launch site
Air Force Eastern Test Range (AFETR)
Object type
Payload
Rocket body
Debris
Shape & HBRUnknown
Radar Cross SectionRCS unknown

Expand to show TLE details & history

TLE from 1 day ago
0 TITAN 3C TRANSTAGE DEB
1 43448U 69013H   24325.39572108 -.00000314  00000-0  00000+0 0  9991
2 43448   0.6082 228.5499 0274043 267.0912 226.6003  0.98709329 23806
Epoch: 2024-11-20T09:29Z
Definitive object data (Epoch: 2024-11-20T09:29:50.301Z)
Latitude0.47327°
Longitude157.64965°
Altitude37,043.936 km
Speed3.001 km/s
True Right ascension00h 00m 00s
True Declination0° 28' 22"
Sunlit
Object was in daylight at TLE epoch
Visualization TLE readout
Latitude0.51822°
Longitude150.06665°
Altitude37,148.858 km
Speed2.993 km/s
Apparent Right ascension23h 05m 10s
Apparent Declination-4° 41' 19"
Sunlit
Object is in daylight
Visualization observer readout
Local Sidereal Time06:19:37
Azimuth278.515° WNW
Elevation-17.243°
Doppler factor1
Orbital elements
Apogee altitude37,399.122 km
Perigee altitude35,063.751 km
Semi-major axis42,609.573 km
Eccentricity0.0274043
Inclination0.6082°
RAAN228.5499°
Arg. of periapsis267.0912°
True anomaly224.3717°
Mean anomaly226.6003°
Eccentric anomaly225.48076°
Mean motion0.24676 °/min
BSTARUnknown
Orbital period1458.88 mins
Loading maneuver chart data...

TITAN 3C TRANSTAGE DEB Visibility forecast

Observer location: undefined°, undefined

TITAN 3C TRANSTAGE DEB is not visible in the next 10 days
Span
Click to sort rows by Start time (UTC) header in descending order
Start Az.
Max El. time (UTC)
Max El. Az.
Max El.
End time (UTC)
End Az.
|